Greensboro, GA

1:58 PM EDT on July 28, 2017 (GMT -0400)
Greensboro

Weather History for K3J7 - March, 2013

Change the Weather History Date:

Monday, March 25, 2013

  Actual Average (KDBN) Record (KDBN)
Temperature  
Mean Temperature 40 °F -  
Max Temperature 46 °F 72 °F 89 °F (1954)
Min Temperature 35 °F 41 °F 27 °F (1968)
Degree Days  
Heating Degree Days 24    
Moisture  
Dew Point 26 °F    
Average Humidity 54    
Maximum Humidity 93    
Minimum Humidity 37    
Precipitation  
Precipitation 0.00 in - - ()
Sea Level Pressure  
Sea Level Pressure 29.81 in    
Wind  
Wind Speed 11 mph (West)    
Max Wind Speed 18 mph    
Max Gust Speed 34 mph    
Visibility 10 miles    
Events      
Averages and records for this station are not official NWS values.
T = Trace of Precipitation, MM = Missing Value Source: NWS Daily Summary

Daily Weather History Graph

Daily Weather History Graph

Search for Another Location

Airport or City:

Trip Planner

Search our weather history database for the weather conditions in past years. The results will help you decide how hot, cold, wet, or windy it might be!

Date:

Astronomy

Mar. 25, 2013 Rise Set
Actual Time 7:29 AM EDT 7:48 PM EDT
Civil Twilight 7:04 AM EDT 8:13 PM EDT
Nautical Twilight 6:35 AM EDT 8:42 PM EDT
Astronomical Twilight 6:05 AM EDT 9:11 PM EDT
Moon 6:21 PM EDT (3/25) 6:07 AM EDT (3/25)
Length of Visible Light 13h 08m
Length of Day
12h 18m
Waxing Gibbous, 96% of the Moon is Illuminated
Mar 25
Waxing Gibbous
Mar 27
Full
Apr 3
Last Quarter
Apr 10
New
Apr 18
First Quarter

Hourly Weather History & Observations

Time (EDT) Temp. Windchill Dew Point Humidity Pressure Visibility Wind Dir Wind Speed Gust Speed Precip Events Conditions
12:15 AM 46.4 °F 41.9 °F 44.6 °F 93% 29.61 in 10.0 mi West 9.2 mph - N/A   Mostly Cloudy
12:55 AM 44.6 °F 38.4 °F 37.4 °F 76% 29.64 in 10.0 mi West 12.7 mph 19.6 mph N/A   Mostly Cloudy
1:15 AM 44.6 °F 39.2 °F 32.0 °F 61% 29.65 in 10.0 mi West 10.4 mph 23.0 mph N/A   Mostly Cloudy
1:35 AM 44.6 °F 38.4 °F 32.0 °F 61% 29.66 in 10.0 mi West 12.7 mph 20.7 mph N/A   Scattered Clouds
1:55 AM 44.6 °F 39.2 °F 32.0 °F 61% 29.66 in 10.0 mi West 10.4 mph 23.0 mph N/A   Overcast
2:15 AM 42.8 °F 37.5 °F 32.0 °F 66% 29.67 in 10.0 mi West 9.2 mph 19.6 mph N/A   Overcast
2:35 AM 42.8 °F 37.0 °F 30.2 °F 61% 29.68 in 10.0 mi West 10.4 mph 19.6 mph N/A   Overcast
2:55 AM 42.8 °F 37.0 °F 30.2 °F 61% 29.68 in 10.0 mi WSW 10.4 mph 19.6 mph N/A   Overcast
3:15 AM 42.8 °F 38.0 °F 30.2 °F 61% 29.67 in 10.0 mi West 8.1 mph 17.3 mph N/A   Overcast
3:35 AM 42.8 °F 37.5 °F 30.2 °F 61% 29.67 in 10.0 mi West 9.2 mph 17.3 mph N/A   Overcast
3:55 AM 42.8 °F 38.0 °F 30.2 °F 61% 29.67 in 10.0 mi WSW 8.1 mph - N/A   Overcast
4:15 AM 42.8 °F 38.0 °F 30.2 °F 61% 29.68 in 10.0 mi West 8.1 mph 17.3 mph N/A   Overcast
4:35 AM 41.0 °F 35.8 °F 32.0 °F 70% 29.68 in 10.0 mi West 8.1 mph - N/A   Overcast
4:55 AM 41.0 °F 35.2 °F 32.0 °F 70% 29.69 in 10.0 mi West 9.2 mph - N/A   Overcast
5:15 AM 41.0 °F 34.3 °F 28.4 °F 61% 29.70 in 10.0 mi West 11.5 mph 28.8 mph N/A   Overcast
5:35 AM 41.0 °F 33.9 °F 28.4 °F 61% 29.71 in 10.0 mi West 12.7 mph 18.4 mph N/A   Overcast
5:55 AM 41.0 °F 34.7 °F 28.4 °F 61% 29.71 in 10.0 mi West 10.4 mph 18.4 mph N/A   Overcast
6:15 AM 41.0 °F 34.7 °F 26.6 °F 57% 29.72 in 10.0 mi West 10.4 mph 24.2 mph N/A   Overcast
6:35 AM 39.2 °F 33.6 °F 28.4 °F 65% 29.72 in 10.0 mi West 8.1 mph 17.3 mph N/A   Overcast
7:15 AM 39.2 °F 31.6 °F 28.4 °F 65% 29.73 in 10.0 mi West 12.7 mph 16.1 mph N/A   Overcast
7:35 AM 39.2 °F 30.5 °F 28.4 °F 65% 29.74 in 10.0 mi West 16.1 mph 24.2 mph N/A   Overcast
7:55 AM 39.2 °F 31.2 °F 24.8 °F 56% 29.74 in 10.0 mi West 13.8 mph 25.3 mph N/A   Overcast
8:15 AM 39.2 °F 33.0 °F 24.8 °F 56% 29.75 in 10.0 mi West 9.2 mph 23.0 mph N/A   Overcast
8:35 AM 39.2 °F 32.5 °F 26.6 °F 61% 29.75 in 10.0 mi West 10.4 mph 18.4 mph N/A   Overcast
8:55 AM 39.2 °F 31.2 °F 26.6 °F 61% 29.76 in 10.0 mi West 13.8 mph 25.3 mph N/A   Overcast
9:15 AM 39.2 °F 32.0 °F 26.6 °F 61% 29.77 in 10.0 mi West 11.5 mph 18.4 mph N/A   Overcast
9:35 AM 39.2 °F 33.0 °F 28.4 °F 65% 29.78 in 10.0 mi West 9.2 mph - N/A   Overcast
9:55 AM 39.2 °F 30.8 °F 24.8 °F 56% 29.79 in 10.0 mi West 15.0 mph 31.1 mph N/A   Overcast
10:15 AM 41.0 °F 33.5 °F 23.0 °F 49% 29.80 in 10.0 mi West 13.8 mph 26.5 mph N/A   Scattered Clouds
10:35 AM 41.0 °F 32.2 °F 23.0 °F 49% 29.81 in 10.0 mi West 18.4 mph 31.1 mph N/A   Clear
10:55 AM 42.8 °F 35.1 °F 23.0 °F 46% 29.82 in 10.0 mi West 16.1 mph 26.5 mph N/A   Scattered Clouds
11:15 AM 42.8 °F 35.4 °F 23.0 °F 46% 29.83 in 10.0 mi West 15.0 mph 29.9 mph N/A   Mostly Cloudy
11:35 AM 42.8 °F 35.1 °F 24.8 °F 49% 29.83 in 10.0 mi West 16.1 mph 26.5 mph N/A   Overcast
11:55 AM 41.0 °F 33.9 °F 24.8 °F 53% 29.84 in 10.0 mi WSW 12.7 mph 23.0 mph N/A   Overcast
12:15 PM 42.8 °F 36.2 °F 26.6 °F 53% 29.85 in 10.0 mi West 12.7 mph 21.9 mph N/A   Overcast
12:35 PM 42.8 °F 35.8 °F 23.0 °F 46% 29.85 in 10.0 mi West 13.8 mph 25.3 mph N/A   Overcast
12:55 PM 44.6 °F 37.8 °F 26.6 °F 49% 29.85 in 10.0 mi West 15.0 mph 20.7 mph N/A   Mostly Cloudy
1:15 PM 42.8 °F 35.8 °F 23.0 °F 46% 29.85 in 10.0 mi West 13.8 mph 28.8 mph N/A   Mostly Cloudy
1:35 PM 44.6 °F 38.4 °F 26.6 °F 49% 29.84 in 10.0 mi WSW 12.7 mph 23.0 mph N/A   Overcast
1:55 PM 46.4 °F 39.8 °F 26.6 °F 46% 29.84 in 10.0 mi West 16.1 mph 24.2 mph N/A   Overcast
2:15 PM 44.6 °F 38.4 °F 24.8 °F 46% 29.84 in 10.0 mi West 12.7 mph 20.7 mph N/A   Mostly Cloudy
2:35 PM 46.4 °F 40.7 °F 24.8 °F 43% 29.83 in 10.0 mi West 12.7 mph 29.9 mph N/A   Mostly Cloudy
2:55 PM 44.6 °F 38.8 °F 23.0 °F 43% 29.83 in 10.0 mi WNW 11.5 mph 23.0 mph N/A   Scattered Clouds
3:15 PM 46.4 °F 39.5 °F 23.0 °F 40% 29.82 in 10.0 mi West 17.3 mph 27.6 mph N/A   Scattered Clouds
3:35 PM 46.4 °F 40.4 °F 23.0 °F 40% 29.83 in 10.0 mi WSW 13.8 mph 25.3 mph N/A   Clear
3:55 PM 46.4 °F 41.9 °F 24.8 °F 43% 29.82 in 10.0 mi West 9.2 mph 19.6 mph N/A   Clear
4:15 PM 46.4 °F 40.7 °F 23.0 °F 40% 29.83 in 10.0 mi West 12.7 mph 24.2 mph N/A   Scattered Clouds
4:35 PM 46.4 °F 40.7 °F 23.0 °F 40% 29.84 in 10.0 mi WNW 12.7 mph 21.9 mph N/A   Scattered Clouds
4:55 PM 46.4 °F 39.5 °F 21.2 °F 37% 29.84 in 10.0 mi West 17.3 mph 25.3 mph N/A   Scattered Clouds
5:15 PM 46.4 °F 40.4 °F 23.0 °F 40% 29.85 in 10.0 mi West 13.8 mph 21.9 mph N/A   Scattered Clouds
5:35 PM 46.4 °F 39.5 °F 21.2 °F 37% 29.86 in 10.0 mi WNW 17.3 mph 34.5 mph N/A   Scattered Clouds
5:55 PM 44.6 °F 38.8 °F 21.2 °F 39% 29.87 in 10.0 mi West 11.5 mph 20.7 mph N/A   Scattered Clouds
6:15 PM 44.6 °F 37.2 °F 21.2 °F 39% 29.88 in 10.0 mi West 17.3 mph 24.2 mph N/A   Scattered Clouds
6:35 PM 42.8 °F 37.0 °F 21.2 °F 42% 29.89 in 10.0 mi West 10.4 mph 27.6 mph N/A   Scattered Clouds
6:55 PM 42.8 °F 36.2 °F 23.0 °F 46% 29.90 in 10.0 mi WNW 12.7 mph 24.2 mph N/A   Scattered Clouds
7:15 PM 41.0 °F 34.7 °F 23.0 °F 49% 29.91 in 10.0 mi West 10.4 mph 16.1 mph N/A   Scattered Clouds
7:35 PM 41.0 °F 34.7 °F 23.0 °F 49% 29.93 in 10.0 mi WNW 10.4 mph 20.7 mph N/A   Mostly Cloudy
7:55 PM 41.0 °F 34.7 °F 21.2 °F 45% 29.94 in 10.0 mi West 10.4 mph 26.5 mph N/A   Scattered Clouds
8:15 PM 39.2 °F 32.5 °F 23.0 °F 52% 29.95 in 10.0 mi West 10.4 mph 16.1 mph N/A   Mostly Cloudy
8:35 PM 39.2 °F 32.0 °F 23.0 °F 52% 29.95 in 10.0 mi West 11.5 mph 17.3 mph N/A   Overcast
8:55 PM 39.2 °F 33.0 °F 23.0 °F 52% 29.96 in 10.0 mi West 9.2 mph - N/A   Overcast
9:15 PM 37.4 °F 31.4 °F 23.0 °F 56% 29.97 in 10.0 mi West 8.1 mph 17.3 mph N/A   Overcast
9:35 PM 37.4 °F 30.3 °F 23.0 °F 56% 29.98 in 10.0 mi West 10.4 mph 19.6 mph N/A   Mostly Cloudy
9:55 PM 37.4 °F 30.8 °F 23.0 °F 56% 29.99 in 10.0 mi WNW 9.2 mph 16.1 mph N/A   Scattered Clouds
10:15 PM 37.4 °F 31.4 °F 23.0 °F 56% 29.99 in 10.0 mi WNW 8.1 mph - N/A   Scattered Clouds
10:35 PM 37.4 °F 30.8 °F 23.0 °F 56% 30.00 in 10.0 mi West 9.2 mph 17.3 mph N/A   Mostly Cloudy
10:55 PM 35.6 °F 28.0 °F 23.0 °F 60% 30.00 in 10.0 mi West 10.4 mph - N/A   Scattered Clouds
11:15 PM 35.6 °F 30.7 °F 23.0 °F 60% 30.01 in 10.0 mi West 5.8 mph 16.1 mph N/A   Clear
11:35 PM 35.6 °F 28.0 °F 23.0 °F 60% 30.01 in 10.0 mi West 10.4 mph - N/A   Mostly Cloudy
11:55 PM 35.6 °F 29.2 °F 23.0 °F 60% 30.01 in 10.0 mi West 8.1 mph - N/A   Overcast